Weather History for Ft Pierce, FL

Change the Weather History Date:

Saturday, January 19, 2013

  Actual Average Record
Temperature  
Mean Temperature 70 °F -  
Max Temperature 73 °F 74 °F 88 °F (1987)
Min Temperature 66 °F 51 °F 28 °F (1977)
Cooling Degree Days 4    
Growing Degree Days 20 (Base 50)    
Moisture  
Dew Point 63 °F    
Average Humidity 84    
Maximum Humidity 94    
Minimum Humidity 66    
Precipitation  
Precipitation 0.27 in - - ()
Sea Level Pressure  
Sea Level Pressure 30.17 in    
Wind  
Wind Speed 7 mph (NE)    
Max Wind Speed 13 mph    
Max Gust Speed 20 mph    
Visibility 8 miles    
Events Rain    
Averages and records for this station are not official NWS values.
T = Trace of Precipitation, MM = Missing Value Source: NWS Daily Summary

Daily Weather History Graph

Daily Weather History Graph

Search for Another Location

Airport:

Trip Planner

Search our weather history database for the weather conditions in past years. The results will help you decide how hot, cold, wet, or windy it might be!

Date:

Astronomy

Jan. 19, 2013 Rise Set
Actual Time 7:12 AM EST 5:52 PM EST
Civil Twilight 6:47 AM EST 6:17 PM EST
Nautical Twilight 6:19 AM EST 6:45 PM EST
Astronomical Twilight 5:50 AM EST 7:13 PM EST
Moon 12:11 PM EST (1/19) 12:53 AM EST (1/19)
Length of Visible Light 11h 29m
Length of Day
10h 40m
First Quarter, 57% of the Moon is Illuminated
Jan 19
First Quarter
Jan 26
Full
Feb 3
Last Quarter
Feb 10
New
Feb 17
First Quarter

Hourly Weather History & Observations

Time (EST) Temp. Dew Point Humidity Pressure Visibility Wind Dir Wind Speed Gust Speed Precip Events Conditions
12:53 AM 66.2 °F 60.8 °F 83% 30.20 in 10.0 mi ENE 9.2 mph - N/A   Overcast
1:11 AM 66.2 °F 60.8 °F 83% 30.20 in 2.5 mi East 12.7 mph 19.6 mph 0.05 in Rain Rain
1:14 AM 66.2 °F 60.8 °F 83% 30.20 in 3.0 mi East 10.4 mph 19.6 mph 0.05 in Rain Light Rain
1:53 AM 66.0 °F 62.1 °F 87% 30.19 in 8.0 mi ENE 10.4 mph - 0.07 in Rain Light Rain
2:53 AM 66.0 °F 61.0 °F 84% 30.18 in 10.0 mi ENE 8.1 mph 16.1 mph 0.02 in   Mostly Cloudy
3:53 AM 66.0 °F 61.0 °F 84% 30.18 in 10.0 mi NE 5.8 mph - N/A   Scattered Clouds
4:53 AM 66.0 °F 61.0 °F 84% 30.18 in 10.0 mi NE 6.9 mph - N/A   Partly Cloudy
5:53 AM 66.9 °F 62.1 °F 84% 30.18 in 10.0 mi NNE 4.6 mph - N/A   Overcast
6:53 AM 68.0 °F 61.0 °F 78% 30.19 in 10.0 mi NE 5.8 mph - N/A   Overcast
7:53 AM 66.9 °F 62.1 °F 84% 30.21 in 10.0 mi NNE 3.5 mph - N/A   Scattered Clouds
8:53 AM 72.0 °F 61.0 °F 68% 30.22 in 10.0 mi ENE 5.8 mph - N/A   Mostly Cloudy
9:53 AM 73.0 °F 63.0 °F 71% 30.24 in 10.0 mi ENE 10.4 mph 17.3 mph N/A   Mostly Cloudy
10:53 AM 73.9 °F 62.1 °F 66% 30.22 in 10.0 mi ENE 10.4 mph 19.6 mph N/A   Overcast
11:18 AM 73.4 °F 62.6 °F 69% 30.22 in 10.0 mi ENE 8.1 mph - N/A   Overcast
11:30 AM 73.4 °F 62.6 °F 69% 30.22 in 9.0 mi ENE 8.1 mph - 0.00 in Rain Light Rain
11:46 AM 71.6 °F 64.4 °F 78% 30.21 in 2.5 mi East 10.4 mph - 0.02 in Rain Light Rain
11:53 AM 71.1 °F 64.9 °F 81% 30.21 in 7.0 mi East 8.1 mph - 0.02 in Rain Light Rain
12:53 PM 73.9 °F 63.0 °F 68% 30.17 in 10.0 mi ENE 5.8 mph - 0.00 in   Overcast
1:40 PM 73.4 °F 64.4 °F 73% 30.15 in 10.0 mi ENE 5.8 mph - N/A   Overcast
1:53 PM 73.0 °F 64.0 °F 73% 30.14 in 10.0 mi Variable 5.8 mph - N/A   Overcast
2:00 PM 73.4 °F 64.4 °F 73% 30.14 in 10.0 mi ENE 9.2 mph - N/A   Overcast
2:53 PM 72.0 °F 63.0 °F 73% 30.13 in 10.0 mi Variable 5.8 mph - 0.01 in Rain Light Rain
3:53 PM 69.1 °F 64.9 °F 87% 30.13 in 4.0 mi ENE 5.8 mph - 0.00 in Rain Light Rain
4:07 PM 69.8 °F 64.4 °F 83% 30.14 in 2.0 mi East 10.4 mph - 0.00 in Rain Light Rain
4:38 PM 69.8 °F 66.2 °F 88% 30.14 in 8.0 mi Calm Calm - 0.02 in Rain Light Rain
4:50 PM 69.8 °F 66.2 °F 88% 30.13 in 10.0 mi NE 3.5 mph - 0.02 in   Overcast
4:53 PM 69.1 °F 64.9 °F 87% 30.13 in 10.0 mi NE 3.5 mph - 0.02 in   Overcast
5:20 PM 68.0 °F 62.6 °F 83% 30.13 in 5.0 mi ENE 6.9 mph - 0.01 in Rain Light Rain
5:53 PM 66.9 °F 64.0 °F 90% 30.14 in 5.0 mi Calm Calm - 0.01 in Rain Light Rain
6:38 PM 66.2 °F 64.4 °F 94% 30.15 in 3.0 mi East 8.1 mph - 0.02 in Rain Light Rain
6:45 PM 66.2 °F 64.4 °F 94% 30.15 in 2.0 mi East 6.9 mph - 0.04 in Rain Rain
6:53 PM 66.9 °F 64.0 °F 90% 30.16 in 2.0 mi East 4.6 mph - 0.06 in Rain Rain
7:16 PM 66.2 °F 64.4 °F 94% 30.16 in 2.5 mi Calm Calm - 0.05 in Rain Rain
7:28 PM 66.2 °F 64.4 °F 94% 30.16 in 2.5 mi Calm Calm - 0.06 in Rain Light Rain
7:33 PM 66.2 °F 64.4 °F 94% 30.17 in 3.0 mi Calm Calm - 0.06 in Rain Light Rain
7:53 PM 66.9 °F 64.0 °F 90% 30.16 in 7.0 mi NNE 3.5 mph - 0.06 in Rain Light Rain
8:53 PM 66.0 °F 64.0 °F 93% 30.17 in 10.0 mi North 3.5 mph - 0.00 in   Overcast
9:06 PM 66.2 °F 64.4 °F 94% 30.16 in 10.0 mi Calm Calm - N/A   Overcast
9:36 PM 66.2 °F 64.4 °F 94% 30.16 in 10.0 mi North 3.5 mph - N/A   Overcast
9:53 PM 66.9 °F 64.9 °F 93% 30.15 in 10.0 mi North 3.5 mph - N/A   Overcast
10:06 PM 68.0 °F 66.2 °F 94% 30.15 in 10.0 mi NNW 3.5 mph - N/A   Overcast
10:53 PM 66.9 °F 64.9 °F 93% 30.14 in 10.0 mi Calm Calm - N/A   Overcast
11:09 PM 66.2 °F 64.4 °F 94% 30.14 in 10.0 mi North 3.5 mph - N/A   Overcast
11:53 PM 66.9 °F 64.9 °F 93% 30.13 in 10.0 mi North 3.5 mph - N/A   Mostly Cloudy